SKG801 SKRG-SKBO

Flight info

Callsign SKG801
Flight time N/A
Altitude 23000
Route MRN1C ISVAT ISVAT5W
Aircraft B722/M-SDFGHRWY/C

Departure

Time 2026-04-25 00:12
Airport Jose Maria Córdova International Airport (SKRG)

Arrival

Time N/A
Airport El Dorado International Airport (SKBO)
Time Latitude Longitude Altitude Speed Heading
2026-04-24 23:45 6.17761 -75.42679 7032 ft 0 kts 268°
2026-04-25 00:01 6.17761 -75.42678 7033 ft 0 kts 269°
2026-04-25 00:01 6.17761 -75.42662 7033 ft 5 kts 269°
2026-04-25 00:01 6.17766 -75.42633 7030 ft 4 kts 248°
2026-04-25 00:02 6.17780 -75.42613 7032 ft 3 kts 218°
2026-04-25 00:02 6.17781 -75.42612 7032 ft 1 kts 217°
2026-04-25 00:02 6.17775 -75.42617 7033 ft 0 kts 217°
2026-04-25 00:03 6.17774 -75.42617 7031 ft 1 kts 213°
2026-04-25 00:03 6.17756 -75.42619 7033 ft 6 kts 175°
2026-04-25 00:03 6.17668 -75.42618 7034 ft 18 kts 180°
2026-04-25 00:03 6.17532 -75.42614 7030 ft 19 kts 180°
2026-04-25 00:04 6.17403 -75.42625 7029 ft 18 kts 180°
2026-04-25 00:04 6.17282 -75.42622 7028 ft 17 kts 179°
2026-04-25 00:04 6.17167 -75.42616 7025 ft 16 kts 178°
2026-04-25 00:04 6.17030 -75.42587 7020 ft 15 kts 145°
2026-04-25 00:05 6.16973 -75.42551 7021 ft 15 kts 149°
2026-04-25 00:05 6.16880 -75.42499 7021 ft 16 kts 158°
2026-04-25 00:05 6.16760 -75.42485 7015 ft 19 kts 180°
2026-04-25 00:05 6.16618 -75.42483 7016 ft 23 kts 178°
2026-04-25 00:06 6.16447 -75.42484 7010 ft 27 kts 180°
2026-04-25 00:06 6.16250 -75.42480 7005 ft 30 kts 179°
2026-04-25 00:06 6.16033 -75.42478 7001 ft 32 kts 180°
2026-04-25 00:06 6.15810 -75.42482 6989 ft 32 kts 182°
2026-04-25 00:07 6.15593 -75.42476 6994 ft 29 kts 177°
2026-04-25 00:07 6.15401 -75.42472 6989 ft 27 kts 179°
2026-04-25 00:07 6.15221 -75.42471 6987 ft 25 kts 180°
2026-04-25 00:07 6.15052 -75.42472 6984 ft 24 kts 180°
2026-04-25 00:08 6.14909 -75.42466 6981 ft 14 kts 153°
2026-04-25 00:08 6.14887 -75.42433 6980 ft 0 kts 96°
2026-04-25 00:10 6.14887 -75.42416 6980 ft 6 kts 91°
2026-04-25 00:10 6.14886 -75.42342 6980 ft 14 kts 91°
2026-04-25 00:10 6.14910 -75.42295 6981 ft 3 kts 356°
2026-04-25 00:10 6.14985 -75.42298 6983 ft 25 kts 358°
2026-04-25 00:11 6.15326 -75.42301 6990 ft 72 kts 360°
2026-04-25 00:11 6.15971 -75.42307 6999 ft 112 kts 359°
2026-04-25 00:11 6.16871 -75.42317 7019 ft 144 kts 359°
2026-04-25 00:11 6.17945 -75.42319 7149 ft 160 kts 360°
2026-04-25 00:12 6.19098 -75.42332 7456 ft 172 kts 360°
2026-04-25 00:12 6.20312 -75.42300 7842 ft 176 kts
2026-04-25 00:12 6.21559 -75.42236 8211 ft 182 kts
2026-04-25 00:12 6.22860 -75.42181 8408 ft 197 kts
2026-04-25 00:13 6.24192 -75.41662 8434 ft 222 kts 43°
2026-04-25 00:13 6.24930 -75.40246 8486 ft 245 kts 83°
2026-04-25 00:13 6.24593 -75.38525 8676 ft 268 kts 121°
2026-04-25 00:13 6.23226 -75.37121 8909 ft 298 kts 147°
2026-04-25 00:14 6.21500 -75.36021 9994 ft 293 kts 148°
2026-04-25 00:14 6.19863 -75.34810 10794 ft 301 kts 140°
2026-04-25 00:14 6.18346 -75.33290 11598 ft 306 kts 136°
2026-04-25 00:14 6.16660 -75.32047 12395 ft 307 kts 152°
2026-04-25 00:15 6.14731 -75.31088 13185 ft 311 kts 159°
2026-04-25 00:15 6.12696 -75.30312 13993 ft 315 kts 162°
2026-04-25 00:15 6.10627 -75.29532 14681 ft 320 kts 160°
2026-04-25 00:15 6.08565 -75.28662 15401 ft 323 kts 158°
2026-04-25 00:16 6.06453 -75.27754 16109 ft 328 kts 159°
2026-04-25 00:16 6.04356 -75.26892 16794 ft 332 kts 159°
2026-04-25 00:16 6.02203 -75.26018 17479 ft 336 kts 159°
2026-04-25 00:16 6.00028 -75.25121 18136 ft 340 kts 159°
2026-04-25 00:17 5.97833 -75.24206 18755 ft 344 kts 159°
2026-04-25 00:17 5.95610 -75.23287 19295 ft 347 kts 159°
2026-04-25 00:17 5.93365 -75.22363 19861 ft 350 kts 159°
2026-04-25 00:17 5.91121 -75.21394 20441 ft 353 kts 153°
2026-04-25 00:18 5.89222 -75.19834 20955 ft 357 kts 126°
2026-04-25 00:18 5.88137 -75.17571 21216 ft 370 kts 102°
2026-04-25 00:18 5.87909 -75.14967 21591 ft 376 kts 88°
2026-04-25 00:18 5.88090 -75.12345 22196 ft 378 kts 83°
2026-04-25 00:19 5.88369 -75.09710 22706 ft 382 kts 83°
2026-04-25 00:19 5.88653 -75.07039 23181 ft 388 kts 83°
2026-04-25 00:19 5.88946 -75.04276 23177 ft 407 kts 83°
2026-04-25 00:19 5.89175 -75.01386 23177 ft 425 kts 90°
2026-04-25 00:20 5.88602 -74.98434 23172 ft 442 kts 112°
2026-04-25 00:20 5.86975 -74.95770 23176 ft 457 kts 130°
2026-04-25 00:20 5.84735 -74.93428 23162 ft 473 kts 137°
2026-04-25 00:20 5.82192 -74.91252 23161 ft 488 kts 141°
2026-04-25 00:21 5.79508 -74.89094 23149 ft 501 kts 142°
2026-04-25 00:21 5.76772 -74.86902 23148 ft 499 kts 142°
2026-04-25 00:21 5.74120 -74.84777 23149 ft 474 kts 142°
2026-04-25 00:21 5.71618 -74.82770 23134 ft 447 kts 142°
2026-04-25 00:22 5.69236 -74.80907 23119 ft 422 kts 146°
2026-04-25 00:22 5.66664 -74.79722 23121 ft 397 kts 169°
2026-04-25 00:22 5.63972 -74.79582 22656 ft 384 kts 191°
2026-04-25 00:22 5.61529 -74.80520 22164 ft 373 kts 215°
2026-04-25 00:23 5.59588 -74.82194 21686 ft 365 kts 227°
2026-04-25 00:23 5.57942 -74.84112 21198 ft 360 kts 232°
2026-04-25 00:23 5.56422 -74.86047 20706 ft 356 kts 233°
2026-04-25 00:23 5.54899 -74.87989 20210 ft 352 kts 233°
2026-04-25 00:24 5.53372 -74.89935 19709 ft 349 kts 233°
2026-04-25 00:24 5.51878 -74.91840 19229 ft 345 kts 232°
2026-04-25 00:24 5.50263 -74.93604 18744 ft 344 kts 220°
2026-04-25 00:24 5.48275 -74.94862 18259 ft 343 kts 205°
2026-04-25 00:25 5.46008 -74.95568 17778 ft 341 kts 189°
2026-04-25 00:25 5.43670 -74.95679 17754 ft 335 kts 178°
2026-04-25 00:25 5.41377 -74.95450 17805 ft 327 kts 172°
2026-04-25 00:25 5.39159 -74.95033 17902 ft 325 kts 170°
2026-04-25 00:26 5.36885 -74.94615 17741 ft 338 kts 172°
2026-04-25 00:26 5.34526 -74.94274 17664 ft 347 kts 173°
2026-04-25 00:26 5.32113 -74.93933 17636 ft 354 kts 173°
2026-04-25 00:26 5.29655 -74.93545 17614 ft 361 kts 172°
2026-04-25 00:27 5.27172 -74.93141 17605 ft 362 kts 172°
2026-04-25 00:27 5.24679 -74.92732 17600 ft 362 kts 169°
2026-04-25 00:27 5.22314 -74.91895 17600 ft 361 kts 154°
2026-04-25 00:27 5.20239 -74.90502 17602 ft 359 kts 139°
2026-04-25 00:28 5.18574 -74.88660 17610 ft 356 kts 126°
2026-04-25 00:28 5.17227 -74.86587 17604 ft 354 kts 120°
2026-04-25 00:28 5.16078 -74.84406 17608 ft 352 kts 117°
2026-04-25 00:28 5.14959 -74.82225 17603 ft 351 kts 116°
2026-04-25 00:29 5.14135 -74.79933 17621 ft 349 kts 103°
2026-04-25 00:29 5.13235 -74.77693 17659 ft 345 kts 123°
2026-04-25 00:29 5.11843 -74.75776 17445 ft 341 kts 129°
2026-04-25 00:29 5.10360 -74.73890 16944 ft 346 kts 127°
2026-04-25 00:30 5.09046 -74.71885 16683 ft 342 kts 120°
2026-04-25 00:30 5.07925 -74.69789 16368 ft 340 kts 118°
2026-04-25 00:30 5.06787 -74.67717 16076 ft 339 kts 121°
2026-04-25 00:30 5.05556 -74.65700 15826 ft 337 kts 122°
2026-04-25 00:31 5.04331 -74.63703 15610 ft 335 kts 121°
2026-04-25 00:31 5.03155 -74.61692 15327 ft 333 kts 121°
2026-04-25 00:31 5.01992 -74.59684 15036 ft 332 kts 121°
2026-04-25 00:31 5.00816 -74.57697 14794 ft 330 kts 121°
2026-04-25 00:32 4.99645 -74.55733 14536 ft 328 kts 121°
2026-04-25 00:32 4.98482 -74.53769 14345 ft 325 kts 121°
2026-04-25 00:32 4.97332 -74.51813 14115 ft 325 kts 121°
2026-04-25 00:32 4.96184 -74.49865 13895 ft 324 kts 121°
2026-04-25 00:33 4.95039 -74.47932 13660 ft 321 kts 121°
2026-04-25 00:33 4.93897 -74.46004 13408 ft 321 kts 121°
2026-04-25 00:33 4.92760 -74.44081 13245 ft 320 kts 121°
2026-04-25 00:33 4.91612 -74.42182 13084 ft 317 kts 125°
2026-04-25 00:34 4.90158 -74.40545 12917 ft 313 kts 137°
2026-04-25 00:34 4.88532 -74.39166 12760 ft 308 kts 142°
2026-04-25 00:34 4.86877 -74.37791 12586 ft 303 kts 135°
2026-04-25 00:34 4.85489 -74.36223 12422 ft 298 kts 127°
2026-04-25 00:35 4.84329 -74.34552 12263 ft 293 kts 123°
2026-04-25 00:35 4.83156 -74.32905 12099 ft 287 kts 128°
2026-04-25 00:35 4.81906 -74.31353 11779 ft 286 kts 128°